Location: Borojevi?i
(45.0486°N, 16.2297°E)
Time: 17:48:38
(UTC+00:00)

Cosmos 1697 Rocket - Pass Details

Date: 08 August 2020
Orbit: 834 x 842 km, 71.0° (Epoch: 25 September)

Event Time Altitude Azimuth Distance (km) Brightness Sun altitude
Rises 19:08:41 0° 337° (NNW) 3,391 6.9 -9.6°
Reaches altitude 10° 19:11:12 10° 342° (NNW) 2,453 6.0 -10.0°
Maximum altitude 19:16:42 53° 59° (ENE) 1,024 3.0 -10.8°
Enters shadow 19:21:14 15° 133° (SE) 2,104 4.1 -11.4°
